Погода в Кело

Чад     9°15′45″N   15°50′44″E
темп.,
°C
ветер,
м/с
пор.,
м/с
влажн.,
%
обл.,
%
осадки,
мм/ч
давл.,
гПа
погр.,
м
27 февраля, сб
сб2701:00+24ссв122161 0.0 100824
04:00+22ссз23230 0.0 100846
07:00+23с38220 0.0 1011227
10:00+34св47110 0.0 1011861
13:00+39св3390 0.0 10063493
16:00+39св2390 0.0 10044111
19:00+31ссз23130 0.0 100524
22:00+27с22170 0.0 100824
28 февраля, вс
вс2801:00+24с23190 0.0 100732
04:00+22с23200 0.0 100844
07:00+22с26190 0.0 1010171
10:00+34св58100 0.0 10101008
13:00+40св4581 0.0 10052972
16:00+40ссв35823 0.0 10033942
19:00+32с341223 0.0 100539
22:00+27ссв23160 0.0 100624
1 марта, пн
пн101:00+25с39170 0.0 1007181
04:00+23с24200 0.0 100774
07:00+23с38200 0.0 1009253
10:00+34св48100 0.0 1010997
13:00+41св4570 0.0 10053303
16:00+41св3570 0.0 10034226
19:00+32ссв22120 0.0 100424
22:00+29с23140 0.0 100639
2 марта, вт
вт201:00+25с35170 0.0 1007100
04:00+24с36180 0.0 1007130
07:00+24с412160 0.0 1010381
10:00+35всв5997 0.0 10101240
13:00+41всв4574 0.0 10063040
16:00+41всв3460 0.0 10033923
19:00+32ссв22102 0.0 100424
22:00+28с23130 0.0 100632
3 марта, ср
ср301:00+26ссз310166 0.0 1007250
04:00+23с351767 0.0 1007105
07:00+23с3101578 0.0 1010342
10:00+34св47865 0.0 1010962
13:00+40св46674 0.0 10062742
16:00+41св3366 0.0 10033780
19:00+32св121013 0.0 100424
22:00+28ссз34130 0.0 100751